| time (UTC) | temp F | wind direction | speed knots | gust knots | rain 1hr in | rain 24hr in | rain mn in | humidity % | barometer mb |
| 20260504234626 | 55 | 172 | 0.9 | 1.7 | 0.00 | 0.00 | 0.00 | 52 | 1014.3 |
| 20260504233630 | 54 | 140 | 1.7 | 5.2 | 0.00 | 0.00 | 0.00 | 53 | 1014.3 |
| 20260504232624 | 54 | 196 | 0.9 | 2.6 | 0.00 | 0.00 | 0.00 | 53 | 1014.3 |
| 20260504231627 | 55 | 249 | 0.9 | 1.7 | 0.00 | 0.00 | 0.00 | 52 | 1014.3 |
| 20260504230712 | 55 | 243 | 0.9 | 2.6 | 0.00 | 0.00 | 0.00 | 51 | 1014.5 |
| 20260504225645 | 56 | 241 | 1.7 | 2.6 | 0.00 | 0.00 | 0.00 | 51 | 1014.4 |
| 20260504224609 | 56 | 231 | 1.7 | 2.6 | 0.00 | 0.00 | 0.00 | 50 | 1014.6 |
| 20260504223632 | 56 | 228 | 1.7 | 5.2 | 0.00 | 0.00 | 0.00 | 50 | 1014.5 |
| 20260504222625 | 56 | 239 | 1.7 | 2.6 | 0.00 | 0.00 | 0.00 | 49 | 1014.5 |
| 20260504221619 | 56 | 241 | 1.7 | 3.5 | 0.00 | 0.00 | 0.00 | 49 | 1014.6 |
| 20260504220603 | 57 | 239 | 1.7 | 2.6 | 0.00 | 0.00 | 0.00 | 49 | 1014.6 |
| 20260504215624 | 57 | 232 | 1.7 | 2.6 | 0.00 | 0.00 | 0.00 | 48 | 1014.4 |
| 20260504214648 | 58 | 226 | 0.9 | 1.7 | 0.00 | 0.00 | 0.00 | 47 | 1014.7 |
| 20260504213633 | 58 | 208 | 0.9 | 2.6 | 0.00 | 0.00 | 0.00 | 46 | 1014.5 |
| 20260504212646 | 58 | 199 | 2.6 | 7.0 | 0.00 | 0.00 | 0.00 | 46 | 1014.5 |
| 20260504211651 | 58 | 211 | 0.9 | 2.6 | 0.00 | 0.00 | 0.00 | 45 | 1014.6 |
| 20260504210655 | 58 | 209 | 0.9 | 1.7 | 0.00 | 0.00 | 0.00 | 44 | 1014.5 |
| 20260504205618 | 58 | 207 | 1.7 | 2.6 | 0.00 | 0.00 | 0.00 | 43 | 1014.6 |
| 20260504204557 | 59 | 181 | 1.7 | 3.5 | 0.00 | 0.00 | 0.00 | 42 | 1014.6 |
| 20260504203719 | 60 | 204 | 0.9 | 2.6 | 0.00 | 0.00 | 0.00 | 41 | 1014.6 |
| 20260504202639 | 60 | 198 | 0.9 | 1.7 | 0.00 | 0.00 | 0.00 | 41 | 1014.4 |
| 20260504201542 | 61 | 222 | 0.9 | 2.6 | 0.00 | 0.00 | 0.00 | 40 | 1014.5 |
| 20260504200617 | 60 | 233 | 1.7 | 2.6 | 0.00 | 0.00 | 0.00 | 41 | 1014.6 |
| 20260504195517 | 61 | 241 | 0.9 | 1.7 | 0.00 | 0.00 | 0.00 | 40 | 1014.5 |
| 20260504194521 | 62 | 226 | 0.9 | 1.7 | 0.00 | 0.00 | 0.00 | 39 | 1014.6 |
| 20260504193535 | 62 | 220 | 0.9 | 1.7 | 0.00 | 0.00 | 0.00 | 38 | 1014.5 |
| 20260504192602 | 63 | 226 | 1.7 | 2.6 | 0.00 | 0.00 | 0.00 | 38 | 1014.5 |
| 20260504191604 | 63 | 219 | 1.7 | 2.6 | 0.00 | 0.00 | 0.00 | 37 | 1014.6 |
| 20260504190528 | 64 | 214 | 1.7 | 3.5 | 0.00 | 0.00 | 0.00 | 36 | 1014.5 |
| 20260504185552 | 65 | 200 | 1.7 | 2.6 | 0.00 | 0.00 | 0.00 | 35 | 1014.3 |
| 20260504184526 | 65 | 208 | 1.7 | 3.5 | 0.00 | 0.00 | 0.00 | 34 | 1014.3 |
| 20260504183550 | 66 | 207 | 1.7 | 3.5 | 0.00 | 0.00 | 0.00 | 33 | 1014.3 |
| 20260504182534 | 68 | 205 | 1.7 | 3.5 | 0.00 | 0.00 | 0.00 | 32 | 1014.2 |
| 20260504181538 | 69 | 198 | 1.7 | 2.6 | 0.00 | 0.00 | 0.00 | 29 | 1014.3 |
| 20260504180543 | 70 | 201 | 1.7 | 3.5 | 0.00 | 0.00 | 0.00 | 28 | 1014.2 |
| 20260504175617 | 71 | 197 | 1.7 | 5.2 | 0.00 | 0.00 | 0.00 | 27 | 1014.1 |
| 20260504174540 | 72 | 184 | 1.7 | 3.5 | 0.00 | 0.00 | 0.00 | 26 | 1014.2 |
| 20260504173545 | 73 | 177 | 2.6 | 6.1 | 0.00 | 0.00 | 0.00 | 26 | 1014.2 |
| 20260504172546 | 74 | 159 | 3.5 | 7.0 | 0.00 | 0.00 | 0.00 | 25 | 1014.0 |
| 20260504171550 | 74 | 179 | 3.5 | 7.8 | 0.00 | 0.00 | 0.00 | 25 | 1014.0 |
| 20260504170604 | 75 | 174 | 4.3 | 7.8 | 0.00 | 0.00 | 0.00 | 25 | 1014.1 |
| 20260504150605 | 78 | 188 | 4.3 | 13.0 | 0.00 | 0.00 | 0.00 | 23 | 1014.5 |
| 20260504140638 | 80 | 214 | 5.2 | 9.6 | 0.00 | 0.00 | 0.00 | 23 | 1015.1 |
| 20260504130538 | 81 | 175 | 4.3 | 9.6 | 0.00 | 0.00 | 0.00 | 22 | 1015.7 |
| 20260504110544 | 79 | 147 | 5.2 | 13.9 | 0.00 | 0.00 | 0.00 | 26 | 1017.1 |
| 20260504100611 | 77 | 174 | 7.0 | 14.8 | 0.00 | 0.00 | 0.00 | 27 | 1017.8 |
| 20260504081605 | 72 | 202 | 5.2 | 13.9 | 0.00 | 0.00 | 0.00 | 32 | 1018.8 |
| 20260504080629 | 71 | 215 | 4.3 | 11.3 | 0.00 | 0.00 | 0.00 | 33 | 1018.9 |
| 20260504050617 | 49 | 124 | 0.0 | 0.9 | 0.00 | 0.00 | 0.00 | 73 | 1018.7 |
| 20260504045602 | 46 | 122 | 0.9 | 1.7 | 0.00 | 0.00 | 0.00 | 74 | 1018.6 |
| 20260504044535 | 45 | 105 | 0.9 | 1.7 | 0.00 | 0.00 | 0.00 | 74 | 1018.4 |
| 20260504043559 | 45 | 99 | 0.0 | 1.7 | 0.00 | 0.00 | 0.00 | 73 | 1018.4 |
| 20260504042543 | 44 | 95 | 0.9 | 1.7 | 0.00 | 0.00 | 0.00 | 73 | 1018.4 |
| 20260504041626 | 44 | 323 | 0.0 | 0.9 | 0.00 | 0.00 | 0.00 | 72 | 1018.3 |
| 20260504040630 | 44 | 321 | 0.0 | 0.9 | 0.00 | 0.00 | 0.00 | 72 | 1018.3 |
| 20260504035604 | 44 | 321 | 0.9 | 1.7 | 0.00 | 0.00 | 0.00 | 72 | 1018.2 |
| 20260504034600 | 44 | 320 | 0.0 | 1.7 | 0.00 | 0.00 | 0.00 | 71 | 1018.1 |
| 20260504033544 | 44 | 290 | 0.0 | 1.7 | 0.00 | 0.00 | 0.00 | 71 | 1018.1 |
| 20260504032547 | 44 | 0.0 | 0.0 | 0.00 | 0.00 | 0.00 | 71 | 1018.0 | |
| 20260504031551 | 44 | 272 | 0.0 | 0.9 | 0.00 | 0.00 | 0.00 | 70 | 1018.0 |
| 20260504030555 | 45 | 0.0 | 0.9 | 0.00 | 0.00 | 0.00 | 70 | 1018.1 | |
| 20260504025549 | 45 | 272 | 0.0 | 0.9 | 0.00 | 0.00 | 0.00 | 70 | 1018.1 |
| 20260504024553 | 45 | 0.0 | 0.0 | 0.00 | 0.00 | 0.00 | 69 | 1018.0 | |
| 20260504023557 | 45 | 0.0 | 0.9 | 0.00 | 0.00 | 0.00 | 68 | 1018.0 | |
| 20260504022601 | 46 | 0.0 | 0.0 | 0.00 | 0.00 | 0.00 | 68 | 1017.9 | |
| 20260504021608 | 46 | 0.0 | 0.0 | 0.00 | 0.00 | 0.00 | 67 | 1017.9 | |
| 20260504020620 | 46 | 0.0 | 0.0 | 0.00 | 0.00 | 0.00 | 67 | 1018.1 | |
| 20260504015645 | 46 | 272 | 0.0 | 0.9 | 0.00 | 0.00 | 0.00 | 66 | 1018.1 |
| 20260504014628 | 46 | 0.0 | 0.0 | 0.00 | 0.00 | 0.00 | 66 | 1018.0 | |
| 20260504013612 | 47 | 0.0 | 0.9 | 0.00 | 0.00 | 0.00 | 65 | 1017.9 | |
| 20260504012636 | 47 | 0.0 | 0.9 | 0.00 | 0.00 | 0.00 | 65 | 1018.0 | |
| 20260504011611 | 47 | 0.0 | 0.9 | 0.00 | 0.00 | 0.00 | 64 | 1018.2 | |
| 20260504010633 | 47 | 272 | 0.0 | 0.9 | 0.00 | 0.00 | 0.00 | 64 | 1018.1 |
| 20260504005618 | 48 | 272 | 0.0 | 1.7 | 0.00 | 0.00 | 0.00 | 63 | 1018.3 |
| 20260504004633 | 48 | 216 | 0.9 | 1.7 | 0.00 | 0.00 | 0.00 | 63 | 1018.0 |
| 20260504003636 | 48 | 0.0 | 0.0 | 0.00 | 0.00 | 0.00 | 62 | 1018.0 | |
| 20260504002515 | 48 | 103 | 0.0 | 0.9 | 0.00 | 0.00 | 0.00 | 61 | 1018.1 |
| 20260504001635 | 49 | 168 | 0.0 | 0.9 | 0.00 | 0.00 | 0.00 | 60 | 1018.1 |
| 20260504000721 | 49 | 0.0 | 0.0 | 0.00 | 0.00 | 0.00 | 60 | 1018.1 | |
| 20260503235537 | 50 | 0.0 | 0.0 | 0.00 | 0.00 | 0.00 | 59 | 1018.1 |